STARLINK-31848, 59784

Orbit data source: Space-Track

STARLINK-31848, 59784 is a payload satellite owned by SpaceX/Seattle (US) in LEO that was launched on Sat, 18 May 2024 UTC via an FALCON 9 launch vehicle from the Air Force Eastern Test Range (AFETR). Payload-class satellites include a variety of spacecraft equipped with specific instruments for various scientific and technological missions. These include communications satellites like Starlink; space stations such as the ISS; scientific satellites like the Hubble; Earth observation satellites from companies like Planet Labs, Umbra, and HawkEye 360; GPS; miniature CubeSats for education and research; and military/defense satellites.

Loading next visibility...
Identifier
59784, 2024-093C
Orbit
LEO
Country
Flag of USUS
Related business
Manufacturer
SpaceX/Seattle
Mission
Operational Commercial Communications
Bus & Motor
STARLINK V2M, Unknown motor
Mass
730 kg wet, ~700 kg dry
Launch date (UTC)
2024-05-18 (1 year ago)
Launch vehicle
FALCON 9
Launch site
Air Force Eastern Test Range (AFETR)
Object type
Payload
Rocket body
Debris
Shape & HBR
Box + 2 Pan, 17.7 m
Radar Cross Section
33.884 m², Large (>1 m²)

Expand to show TLE details & history
Last TLE update: 22 hours ago

TLE from 22 hours ago
0 STARLINK-31848
1 59784U 24093C   25303.81885873 -.00003217  00000-0 -10742-3 0  9994
2 59784  43.0026 218.8603 0001162 237.3066 122.7674 15.27587090 82873
Epoch: 2025-10-30T19:39Z
TLE epoch observation values (Epoch: 2025-10-30T19:39:09.394Z)
Latitude
0.00001°
Longitude
-115.30101°
Altitude
483.235 km
Speed
7.625 km/s
True Right ascension
14h 35m 26s
True Declination
0° 00' 00"
Sunlit
Object was in daylight at epoch
Visualization orbit readout
Latitude
Unknown
Longitude
Unknown
Altitude
Unknown
Speed
Unknown
Apparent Right ascension
Unknown
Apparent Declination
Unknown
Sunlit
N/A
Visualization observer readout
Local Sidereal Time
13:26:57
Azimuth
Unknown
Elevation
Unknown
Doppler factor
Unknown
Orbital elements
Apogee altitude
485.77 km
Perigee altitude
484.175 km
Semi-major axis
6,863.11 km
Eccentricity
0.00012
Inclination
43.0026°
RAAN
218.8603°
Arg. of periapsis
237.3066°
True anomaly
122.7786°
Mean anomaly
122.7674°
Eccentric anomaly
122.773°
Mean motion
3.81735 °/min
Orbital period
94.31 mins
BSTAR
-0.00010742
Loading maneuver chart data...
Computing Atmospheric mass density...
Loading historical data...
Loading historical data...
Loading historical data...
Loading historical data...
Loading historical data...
Loading historical data...
Loading historical data...

Documentation

Showing up to 5 results
|